Location: Pasadena-CA
(34.1440°N, 118.1100°W)
Time: 16:35:37
(UTC-08:00)

ISS - Visible Passes

Search period start: 18 January 2022 00:00
Search period end: 28 January 2022 00:00
Orbit: 413 x 423 km, 51.6° (Epoch: 18 January)

Date Brightness Start Highest point End Pass type
(mag) Time Alt. Az. Time Alt. Az. Time Alt. Az.
18 Jan -2.1 18:30:50 10° W 18:33:46 28° NW 18:35:11 21° N visible
19 Jan -3.1 17:42:31 10° WSW 17:45:44 50° NW 17:49:00 10° NE visible
20 Jan -1.1 18:33:24 10° NW 18:34:56 13° NNW 18:36:28 10° N visible
21 Jan -1.5 17:44:19 10° W 17:46:45 19° NNW 17:49:11 10° NNE visible
